Regional Weather Roundup
Issued by NWS

Home | Current Version | Previous Version | Text Only | Print | Product List | Glossary Off
Versions: 1 2 3 4 5 6 7 8 9 10 11 12 13 14 15 16 17 18 19 20 21 22 23 24 25 26 27 28 29 30 31 32 33 34 35 36 37 38 39 40 41 42 43 44 45 46 47 48 49 50

000
ASUS43 KMKX 302000
RWRWI

WISCONSIN REGIONAL WEATHER ROUNDUP
NATIONAL WEATHER SERVICE MILWAUKEE/SULLIVAN WI
300 PM CDT TUE AUG 30 2016

NOTE: "FAIR" INDICATES FEW OR NO CLOUDS BELOW 12,000 FEET WITH NO
SIGNIFICANT WEATHER AND/OR OBSTRUCTIONS TO VISIBILITY.

WIZ001-002-006>008-014>016-023>028-302100-
NORTHWEST WISCONSIN

CITY           SKY/WX    TMP DP  RH WIND       PRES   REMARKS
SUPERIOR ARPT  SUNNY     76  55  47 W7        30.15F
ASHLAND        SUNNY     76  57  51 N8        30.14F
HAYWARD        MOSUNNY   76  53  44 NW3       30.15F
SIREN          MOSUNNY   76  51  42 NW7       30.17F
CUMBERLAND     CLOUDY    72  55  56 N6        30.17F
RICE LAKE      CLOUDY    75  59  57 NW3       30.17F
CHETEK         NOT AVBL
LADYSMITH      CLOUDY    77  59  54 W6        30.16F
EAU CLAIRE     NOT AVBL
MENOMONIE      CLOUDY    77  61  58 NW6       30.15S
NEW RICHMOND   MOSUNNY   76  58  53 N6        30.17F
OSCEOLA        MOSUNNY   75  60  58 NW3       30.20F
$$

WIZ003>005-009-010-017-018-302100-
NORTH CENTRAL WISCONSIN

CITY           SKY/WX    TMP DP  RH WIND       PRES   REMARKS
MANITOWISH WTR NOT AVBL
ARBOR VITAE    MOSUNNY   77  63  61 NW7       30.14F
WOODRUFF       MOSUNNY   77  63  61 NW7       30.14F
RHINELANDER    CLOUDY    75  62  64 N5        30.13F
EAGLE RIVER    MOSUNNY   74  58  58 CALM      30.13F
LAND O LAKES   MOSUNNY   74  59  59 W5        30.14F
PHILLIPS       MOSUNNY   74  60  61 NW6       30.14S
TOMAHAWK       CLOUDY    76  60  57 NW7       30.13F
MEDFORD        PTSUNNY   75  62  64 W8        30.13F
MERRILL        MOSUNNY   78  62  56 NW5       30.11F HX  80
$$

WIZ029-030-035-036-043>047-302100-
CENTRAL WISCONSIN

CITY           SKY/WX    TMP DP  RH WIND       PRES   REMARKS
WAUSAU         PTSUNNY   80  65  59 NW8       30.08F HX  82
MOSINEE        NOT AVBL
MARSHFIELD     CLOUDY    81  65  58 W8        30.10F HX  83
STEVENS POINT  MOSUNNY   80  63  54 W5        30.10F HX  82
WAUPACA        MOSUNNY   87  60  40 W8        30.08F HX  86
WAUTOMA        MOSUNNY   83  65  54 NW8       30.07F HX  85
WISC RAPIDS    MOSUNNY   85  63  47 W8        30.10F HX  86
CAMP DOUGLAS   NOT AVBL
$$

WIZ011>013-019>022-031-037>040-048>050-302100-
NORTHEAST WISCONSIN

CITY           SKY/WX    TMP DP  RH WIND       PRES   REMARKS
ANTIGO         PTSUNNY   78  65  64 N10       30.10F HX  80
SHAWANO        CLOUDY    85  63  47 W5        30.06F HX  86
OCONTO         NOT AVBL
STURGEON BAY   MOSUNNY   81  66  60 W6        30.05F HX  83
GREEN BAY      PTSUNNY   84  68  58 SW6       30.04F HX  87
MANITOWOC      NOT AVBL
APPLETON       PTSUNNY   82  57  42 W9        30.06F HX  82
CLINTONVILLE   MOSUNNY   86  59  39 W6        30.05F HX  85
OSHKOSH        CLOUDY    84  63  49 W7        30.06F HX  85
$$

WIZ032>034-041-042-053>061-302100-
SOUTHWEST WISCONSIN

CITY           SKY/WX    TMP DP  RH WIND       PRES   REMARKS
LA CROSSE      PTSUNNY   82  65  56 NW10      30.10F HX  84
SPARTA         PTSUNNY   81  63  53 W7        30.12F HX  82
VIROQUA        PTSUNNY   80  66  62 NW5       30.13F HX  82
BOSCOBEL       PTSUNNY   84  71  65 NW10      30.09F HX  89
PRAIRIE DU CHI CLOUDY    82  68  63 W6        30.10F HX  84
PLATTEVILLE    PTSUNNY   82  74  76 W7        30.11F HX  89
$$

WIZ056-057-062-063-064-067-068-302100-
SOUTH CENTRAL WISCONSIN

CITY           SKY/WX    TMP DP  RH WIND       PRES   REMARKS
REEDSBURG      NOT AVBL
BARABOO/DELLS  PTSUNNY   82  64  55 N6        30.10F HX  83
LONE ROCK      NOT AVBL
MINERAL POINT  CLOUDY    82  72  69 W6        30.11F HX  87
MADISON        PTSUNNY   84  68  58 N3        30.07F HX  87
MIDDLETON      PTSUNNY   84  69  61 CALM      30.10F HX  88
WATERTOWN      CLOUDY    78  73  84 S7        30.09S HX  81
MONROE         LGT RAIN  72  68  88 E10       30.10F
JANESVILLE     NOT AVBL
$$

WIZ051-052-058>065-066-070>072-302100-
SOUTHEAST WISCONSIN

CITY           SKY/WX    TMP DP  RH WIND       PRES   REMARKS
MILWAUKEE      RAIN      71  67  87 SE9       30.08F FOG
WAUKESHA       MOSUNNY   73  70  88 E6        30.10F
MILWAUKEE/TIMM MOSUNNY   72  66  83 SE7       30.09F
RACINE         CLOUDY    71  67  87 NW9       30.10F
BURLINGTON     HVY RAIN  71  67  85 NW16      30.11R
KENOSHA        PTSUNNY   81  71  71 NE13      30.09S THUNDER HX  85
FOND DU LAC    CLOUDY    83  66  56 MISG      30.06F HX  85
SHEBOYGAN      CLOUDY    81  70  69 S5        30.06F HX  84
WEST BEND      CLOUDY    79  70  73 SE8       30.08S HX  81
JUNEAU         MOSUNNY   83  64  52 NW3       30.09F HX  84
$$

LSZ147-162-302100-
LAKE SUPERIOR

STATION/POSITION TIME  TEMP    WIND        PRES    WAVE
                       AIR SEA DIR/SP/G            HT/PER
                 (UTC) (F)     (DEG/KT/KT) (MB)    (FT/S)
W MID LAKE BUOY  1850   67 69  260/  6/  8 1020.1F   1/ 3
DEVILS ISLAND    1900   68     220/  5/  6 1021.0F
PORT WING        1940   71     280/  5/  8 1021.0F
SAXON HARBOR     1900   69      10/  5/  7 1021.0
$$

LMZ867-665-643>646-302100-
LAKE MICHIGAN

STATION/POSITION TIME  TEMP    WIND        PRES    WAVE
                       AIR SEA DIR/SP/G            HT/PER
                 (UTC) (F)     (DEG/KT/KT) (MB)    (FT/S)
CHAMBERS ISLAND  1900   80     150/  3/  9 1016.9F
S GREEN BAY BUOY 1900   75 74  190/  4/  4 1017.4
N MID LAKE BUOY  1850   72 72  270/  2/  4 1017.1F   1/ 3
NORTHPORT PIER   1900   78     120/  3/  4 1017.3F
SISTER BAY       1907   82        CALM       N/A
ALGOMA LAKESHORE 1815          100/  5/  6   N/A
KEWAUNEE LAKESHO 1900   70     180/  7/  8 1017.8F
SHEBOYGAN LAKESH 1900   73     170/  8/  9 1017.9F
PORT WASHINGTON  1900   73     190/  4/  7 1019.6S
ATWATER BUOY     1900   67     240/  6/  6   N/A
MILWAUKEE LAKESH 1910   70     170/  4/  5   N/A
S MID LAKE BUOY  1850   74 76  190/  8/  8 1018.5F   1/ 4
KENOSHA   LAKESH 1900   73     170/ 11/ 13 1018.3F
$$

TC  - TEMPERATURE IN CELSIUS
VSB - VISIBILITY IN STATUTE MILES
WCI - WIND CHILL INDEX
HX  - HEAT INDEX





USA.gov is the U.S. government's official web portal to all federal, state and local government web resources and services.